{"data":{"norad_id":48783,"epoch":"2026-09-19T22:17:34.569312Z","epoch_age_seconds":67588,"freshness":"FRESH","line1":"1 48783U 21045S   26262.92887233  .00000213  00000+0  53223-3 0  9995","line2":"2 48783  87.8999 240.2966 0001289  99.7036 260.4240 13.15546800256931","mean_motion":13.155468,"eccentricity":0.0001289,"inclination_deg":87.8999,"raan_deg":240.2966,"arg_perigee_deg":99.7036,"mean_anomaly_deg":260.424,"bstar":0.00053223,"rev_number":25693,"period_min":109.46018796139,"perigee_km":1200.8004385737,"apogee_km":1202.7545405291,"semimajor_km":7579.9144895514,"source":"CELESTRAK","updated_at":"2026-09-20T09:00:44.618358Z"}}